Hourly Data Report for July 11, 2021

TORONTO CITY
ONTARIO
Current Station Operator: ECCC - MSC

43°40'00.000" N
79°24'00.000" W
112.50 m
6158355
71508
XTO

Download Data

Hourly Data (July 2021)
Hourly Data Report for July 11, 2021
TIME
LST
Temp Definition
°C
Dew Point Definition
°C
Rel Hum Definition
%
Precip. Amount Definition
mm

Wind Dir Definition
10's deg

Wind Spd Definition
km/h
Visibility Definition
km
Stn Press Definition
kPa
Hmdx Definition


Wind Chill Definition


Weather Definition


00:00 18.9 13.5 71 0.0       100.44     LegendNANA
01:00 19.5 14.6 73 0.0       100.41     LegendNANA
02:00 18.6 14.3 76 0.0       100.40     LegendNANA
03:00 18.6 14.4 76 0.0       100.39     LegendNANA
04:00 18.4 14.3 77 0.0       100.34     LegendNANA
05:00 18.2 14.0 77 0.0       100.34     LegendNANA
06:00 18.5 14.8 79 0.0       100.37     LegendNANA
07:00 19.1 15.4 79 0.0       100.38     LegendNANA
08:00 19.8 15.6 77 0.0       100.37     LegendNANA
09:00 20.2 16.0 76 0.0       100.35 25   LegendNANA
10:00 20.4 16.4 78 0.0       100.34 25   LegendNANA
11:00 20.3 16.6 80 0.0       100.43 25   LegendNANA
12:00 20.1 17.5 85 0.2       100.44 26   LegendNANA
13:00 20.1 18.1 89 0.3       100.43 26   LegendNANA
14:00 20.1 18.2 89 0.2       100.41 26   LegendNANA
15:00 19.9 17.8 88 0.3       100.36     LegendNANA
16:00 20.9 17.4 80 0.0       100.36 26   LegendNANA
17:00 20.8 17.5 81 0.0       100.35 26   LegendNANA
18:00 20.3 16.8 80 0.0       100.34 25   LegendNANA
19:00 20.8 15.7 72 0.0       100.33 25   LegendNANA
20:00 20.6 16.2 76 0.0       100.32 25   LegendNANA
21:00 20.3 16.9 81 0.0       100.39 26   LegendNANA
22:00 20.4 17.0 81 0.0       100.39 26   LegendNANA
23:00 20.1 17.2 83 0.0       100.40 26   LegendNANA

Notes on Data Quality.

Legend

  • E = Estimated
  • M = Missing
  • NA = Not Available*
  • [empty] = Indicates an unobserved value
Date modified: